Погода в Иэме

Погода в Иэме : погода сейчас, прогноз погоды и архив. Всё, что Вы хотите узнать о погоде в Иэме!

Поиск расширенной информации на нашем сайте:

Другие новости

Новости СМИ2

Главная страница сайта

Новости сайта

03.07.2017

Напоминаем, что на нашем специализированном сайте Метеоцентр.Азия вы можете получить высокодетализированные автоматические прогнозы погоды по пунктам России, СНГ и мира в авиационном формате (включающие направление и скорость ветра, видимость, явления погоды, количество и форму облачности, нижнюю и верхнюю границу облачности).


Погода в Иэме - сегодня

Время (UTC), дата Ветер
(°,м/с) 
Видим.   Явления Облачность Т
(°С)
Тd
(°С)
f(%) Тe
(°С)
Pmin
(гПа)
dP
(гПа)
Po
(мм)
O2
(г/м3)
Тmin Tmax R s Состояние
почвы
18 20.07.17 300 (СЗ) 20000 м    10/0 средняя 
[Ac As]
+4 -0.3 74 +3  1010.1  1.3  698  277           
21 20.07.17 280 (З) 20000 м    10/0 средняя 
[Ac As]
+4 +1.4 83 +2  1010.8  0.6  698  277  +2.5        влажная 
00 21.07.17 290 (З) 20000 м    10/0 средняя 
[Ac As]
+6.1 +3 80 +4  1010.2  0.1  698  275           
03 21.07.17 300 (СЗ) 20000 м    10/0 средняя 
[Ac As]
+8.8 +4.5 74 +7  1009.7  0.3  698  272           
06 21.07.17 300 (СЗ) 20000 м    10/0 средняя 
[Ac As]
+7.2 +5.4 88 +5  1010.8  0.5  699  273           
09 21.07.17 280 (З) 20000 м    10/0 средняя 
[Ac As]
+6.9 +5.3 90 +5  1011.1  0.3  699  274    +8.8       
12 21.07.17 290 (З) 20000 м    10/0 средняя 
[Ac As]
+5.7 +4.8 94 +4  1011.6  0.1  699  275           
15 21.07.17 280 (З) 20000 м  слаб. дождь  10/0 средняя 
[As op]
+3.6 +3.1 97 +2  1012  -0.2  699  277           
18 21.07.17 290 (З) 20000 м  слаб. дождь  10/0 средняя 
[As op]
+2.8 +2.5 98 +1  1011.5  -0.7  698  278           
21 21.07.17 300 (СЗ) 20000 м  {дождь}  9/0 средняя 
[Ac trans]
+3.7 +1.7 87 +3  1011  -0.2  698  277  +2.1    0.4    влажная 
00 22.07.17 тихо ()   20000 м  {дождь}  10/0 средняя 
[Ac As]
+5.4 +3.2 86 +5  1010  -0.5  698  275           
03 22.07.17 200 (Ю) 20000 м    9/0 средняя 
[Ac trans]
+9.2 +5.2 76 +10  1007.5  -1.2  697  271           
06 22.07.17 270 (З) 20000 м    8/0 средняя 
[Ac trans]
+13.6 +0.3 40 +15  1005.2  -1.1  696  267           
09 22.07.17 330 (СЗ) 20000 м    8/0 средняя 
[Ac trans]
+11.1 +3.4 59 +10  1006.4  0.2  696  269    +13.6       
12 22.07.17 310 (СЗ) 20000 м    8/0 средняя 
[Ac trans]
+9.7 +4.3 69 +9  1006  -0.4  696  270           
15 22.07.17 тихо ()   20000 м    10/0 средняя 
[Ac As]
+4.3 +2.8 90 +4  1006.9  -0.6  696  275           
18 22.07.17 060 (СВ) 20000 м    8/0 средняя 
[Ac trans]
+2.4 +1.6 94 +2  1006.7  -0.8  695  277           
21 22.07.17 тихо ()   20000 м    3/0 средняя 
[Ac trans]
+8 +4.6 79 +8  1004.4  -0.5  695  271  +2        влажная 
00 23.07.17 290 (З) 20000 м    9/0 средняя 
[Ac trans]
+10.3 +4.8 69 +9  1003  -0.7  694  269           
03 23.07.17 230 (ЮЗ) 20000 м    6/0 средняя 
[Ac trans]
+12.9 +4.6 57 +13  1001.5  -0.7  694  266           
06 23.07.17 280 (З) 20000 м    10/0 средняя 
[Ac As]
+14.4 +6.3 58 +15  1001.1  694  264           
09 23.07.17 250 (З) 20000 м    6/0 средняя 
[Ac As]
+15 +7.1 59 +16  1000.9  694  264    +15       
12 23.07.17 тихо ()   20000 м    10/0 средняя 
[Ac As]
+11.9 +9.1 83 +13  1002.3  0.6  694  266           
15 23.07.17 тихо ()   20000 м  слаб. дождь  10/0 средняя 
[As op]
+9.1 +8.3 95 +10  1005.9  0.7  695  269           
18 23.07.17 тихо ()   20000 м  слаб. дождь  10/0 средняя 
[As op]
+7.3 +5.9 91 +7  1005.1  0.6  695  272           
Время (UTC), дата Ветер
(°,м/с) 
Видим.   Явления Облачность Т
(°С)
Тd
(°С)
f(%) Тe
(°С)
Pmin
(гПа)
dP
(гПа)
Po
(мм)
O2
(г/м3)
Тmin Tmax R s Состояние
почвы

Для получения пояснительной информации подведите курсор к названию столбца.

ПОГОДА в Иэме - архив

Всё, что Вы хотите узнать о погоде в Иэме - удобно и подробно!

Выберите нужную дату (начиная с 1 января 2015* года) и нажмите кнопку "Найти".
Будут отображены архивные сводки погоды по пункту Иэма, начиная с указанной даты.


Отображать данные в формате CSV (для использования в таблицах Excel)


Внимание! Наш архив погоды предназначен исключительно для личного некоммерческого использования в познавательных целях. Если Вам необходимы официальные справки о состоянии погоды (для производственных, юридических, коммерческих и т.п. целей), обращайтесь в органы Росгидромета.

*Примечание: данная дата относится к архиву по метеостанциям СССР (Россия, СНГ, Балтия).
Архив по метеостанциям Зарубежной Европы и Азии (кроме Китая) хранится 10 дней, по другим регионам земного шара (Китай, Африка, Америка, Австралия, Океания) - 1 день.

Иэма - район местоположения метеостанции


Название, широта, долгота, высота метеостанции:
Иэма 65.2°ш. 135.9°д. 676 м над ур. моря [Российская Федерация]

Дополнительная информация

В oтличие oт бoльшинства пoгoдных сайтoв мы публикуем пoдрoбную метеoинфoрмацию в детальнoм прoфессиoнальнoм фoрмате.

Характеристики температуры и влажнoсти вoздуха измеряются на высoте 2 м в тени вдали oт зданий и деревьев.
Скoрoсть ветра измеряется на высoте 10 м (на урoвне рoста челoвека скoрoсть ветра ниже в 1.5-2 раза). Если метеoстанция нахoдится в гoрoде или в лесу, тo скoрoсть ветра занижена на 2-4 м/с пo сравнению с oткрытым местoм. Скoрoсть ветра над акватoриями крупных рек и oзёр, а также на вершинах хoлмoв на 2-5 м/с выше, чем в oбычных услoвиях.
Атмoсфернoе давление в разных тoчках местнoсти мoжет значительнo oтличаться oт давления на метеoстанции, в зависимoсти oт услoвий рельефа (при пoдъёме на 10 м давление пoнижается примернo на 1 мм рт.ст.).